Location: Al Mulaqqa?ah
(24.1833°N, 32.8833°E)
Time: 22:11:54
(UTC+00:00)

Aurora 2 Rocket - Pass Details

Date: 26 September 2021
Orbit: 389 x 1735 km, 25.0° (Epoch: 21 October)

Event Time Altitude Azimuth Distance (km) Brightness Sun altitude
Rises 17:30:04 0° 252° (WSW) 3,702 7.5 -25.7°
Reaches altitude 10° 17:33:12 10° 250° (WSW) 2,510 6.4 -26.4°
Enters shadow 17:38:05 55° 223° (SW) 822 3.2 -27.5°
